[[{"header":{"parameterUnit":"m.s-1","parameterCategory":1,"la1":30.2991,"la2":30.254,"lo1":-89.0895,"lo2":-89.0444,"dy":0.0017,"dx":0.0017,"nx":28,"ny":28,"refTime":"2023-10-13T09:00:00:Z","depth":0,"parameterNumber":2,"parameterNumberName":"U-component_of_WINDS"},"data":[0,0,0,0,0,0,0,0,0,0,0,0,0,0,0,0,0,0,0,0,0,0,0,0,0,0,0,0,0,0,0,0,0,0,0,0,0,0,0,0,0,0,0,0,0,0,0,0,0,0,0,0,0,0,0,0,0,0,-0.0046,-0.0046,0,-0.0043,-0.0043,-0.0043,-0.0001,-0.0,0.0001,0.0002,0.0005,0.0004,0.0003,0,0,0,0,0,0,0,0,0,0,0,0,0,-0.0016,-0.0017,-0.0046,-0.0046,-0.0046,-0.0043,-0.0043,-0.0043,-0.0001,-0.0,0.0001,0.0002,0.0005,0.0004,0.0003,0,0,0,0,0,0,0,0,0,0,0,0,0,-0.0023,-0.0017,-0.0046,-0.0025,-0.0023,-0.0043,-0.0043,-0.0043,-0.0002,-0.0,0.0002,0.0003,0.0006,0.0004,0.0003,-0.0037,0,0,-0.0001,-0.0002,0,0,0,0,0,0,0,0,-0.0022,-0.0024,-0.0028,-0.0026,-0.0024,-0.0021,-0.0031,-0.0041,-0.0002,-0.001,0.0002,0.0004,-0.0005,-0.0005,-0.0008,-0.0037,-0.0037,-0.0001,-0.0002,-0.0003,-0.0003,0,0,0,0,0,0,0,-0.0022,-0.0024,-0.0045,-0.0028,-0.0026,-0.0015,-0.0015,-0.0033,-0.0016,-0.0009,-0.0006,-0.0006,-0.0004,-0.0007,-0.0008,-0.0037,-0.0001,-0.0002,-0.0003,-0.0004,-0.0098,-0.01,0,0,0,0,0,0,-0.0024,-0.0023,-0.0045,-0.0045,-0.0019,-0.0017,-0.0016,-0.0023,-0.0016,-0.0013,-0.0007,-0.0004,-0.0005,-0.0006,-0.0008,-0.0054,-0.0003,-0.0004,-0.0005,-0.0097,-0.0099,-0.0101,0,0,0,0,0,0,-0.0024,-0.0027,-0.0045,-0.0033,-0.0035,-0.002,-0.0028,-0.0024,-0.0028,-0.0015,-0.0012,-0.0014,-0.0004,-0.0006,-0.003,-0.0054,-0.0005,-0.0006,-0.0095,-0.0097,-0.01,-0.0148,0,0,0,0,0,0,-0.0023,-0.0027,-0.0042,-0.0034,-0.0036,-0.0068,-0.0029,-0.0025,-0.003,-0.0026,-0.002,-0.0018,-0.0003,-0.0028,-0.0031,-0.0055,-0.0007,-0.0092,-0.0096,-0.0099,-0.0144,-0.0152,-0.0158,0,0,0,0,0,-0.0022,-0.0056,-0.0043,-0.0046,-0.0054,-0.0069,-0.007,-0.0053,-0.0032,-0.0047,-0.0039,-0.0018,-0.005,-0.0031,-0.0034,-0.0058,-0.0091,-0.0095,-0.0099,-0.0141,-0.015,-0.0158,0,0,0,0,0,0,-0.0067,-0.0054,-0.004,-0.0072,-0.0072,-0.0062,-0.0081,-0.0063,-0.0069,-0.0065,-0.0043,-0.0042,-0.007,-0.0066,-0.0045,-0.0097,-0.0067,-0.0072,-0.0098,-0.0107,-0.0114,-0.0115,-0.0008,0,0,0,0,0,-0.008,-0.0093,-0.0082,-0.0111,-0.0112,-0.0096,-0.0102,-0.0089,-0.0088,-0.0088,-0.0081,-0.0081,-0.0092,-0.0099,-0.0107,-0.0143,-0.0142,-0.0161,-0.0168,-0.0174,-0.0179,-0.0198,-0.0206,-0.0113,-0.0113,-0.0113,0,0,-0.0108,-0.0103,-0.0113,-0.012,-0.0118,-0.0132,-0.0097,-0.0113,-0.0124,-0.009,-0.0113,-0.0108,-0.0107,-0.0137,-0.015,-0.0135,-0.0204,-0.0179,-0.0184,-0.0185,-0.0202,-0.0211,-0.0219,-0.0116,-0.0115,-0.0115,0,0,-0.0167,-0.0164,-0.0188,-0.0187,-0.0186,-0.0175,-0.0181,-0.0174,-0.0169,-0.0192,-0.0167,-0.0179,-0.0197,-0.0197,-0.02,-0.0258,-0.0239,-0.0262,-0.0299,-0.0318,-0.0325,-0.0332,-0.0353,-0.0361,-0.0266,-0.0266,-0.0266,0,-0.0202,-0.0223,-0.0203,-0.0221,-0.0225,-0.0195,-0.022,-0.022,-0.0221,-0.0224,-0.0207,-0.0229,-0.0226,-0.0257,-0.0271,-0.0273,-0.028,-0.0263,-0.0326,-0.0332,-0.0338,-0.0358,-0.0366,-0.0269,-0.0269,-0.0268,-0.0268,0,-0.0266,-0.0281,-0.0301,-0.0303,-0.0309,-0.033,-0.0313,-0.0322,-0.0307,-0.0299,-0.0322,-0.0317,-0.0325,-0.0331,-0.0317,-0.0359,-0.035,-0.033,-0.03,-0.035,-0.0369,-0.0376,-0.0273,-0.0272,-0.0271,-0.027,0,0,-0.0354,-0.0344,-0.0352,-0.0353,-0.0348,-0.0359,-0.0379,-0.0386,-0.0394,-0.0396,-0.0412,-0.0428,-0.0409,-0.0412,-0.0398,-0.0414,-0.0461,-0.0392,-0.0391,-0.0406,-0.0508,-0.0524,-0.0534,-0.0448,-0.045,-0.0451,-0.0509,0,-0.0411,-0.0445,-0.0427,-0.0463,-0.0477,-0.0448,-0.0465,-0.0465,-0.0457,-0.0467,-0.0459,-0.047,-0.0444,-0.0446,-0.0461,-0.0453,-0.0482,-0.0448,-0.0464,-0.0465,-0.0466,-0.0543,-0.056,-0.0615,-0.0516,-0.0517,-0.0518,0,-0.0482,-0.0487,-0.0525,-0.0518,-0.0523,-0.0539,-0.0544,-0.0554,-0.0552,-0.0546,-0.0549,-0.0531,-0.055,-0.0519,-0.0546,-0.0523,-0.0528,-0.0525,-0.0527,-0.0529,-0.0495,-0.0548,-0.0632,-0.0641,-0.0529,-0.0528,-0.0527,0,-0.0543,-0.0559,-0.0584,-0.0585,-0.0577,-0.0589,-0.0587,-0.0584,-0.0589,-0.0593,-0.0597,-0.0603,-0.0607,-0.0613,-0.0597,-0.0576,-0.0626,-0.0594,-0.0621,-0.0622,-0.0634,-0.0633,-0.0721,-0.0636,-0.0635,-0.0635,-0.0635,0,-0.061,-0.0634,-0.0611,-0.0626,-0.0652,-0.0632,-0.0658,-0.0653,-0.065,-0.0664,-0.0639,-0.0652,-0.063,-0.0642,-0.0629,-0.0653,-0.0655,-0.065,-0.0647,-0.0653,-0.0654,-0.0657,-0.0653,-0.0637,-0.0637,-0.0637,-0.0636,0,-0.0683,-0.0668,-0.0693,-0.0684,-0.0682,-0.0702,-0.0694,-0.0708,-0.0698,-0.0716,-0.0719,-0.0704,-0.0715,-0.07,-0.071,-0.0702,-0.0735,-0.0726,-0.0736,-0.0733,-0.0762,-0.076,-0.0855,-0.0867,-0.0774,-0.0775,-0.0775,0,-0.0727,-0.0745,-0.0737,-0.0745,-0.0743,-0.0755,-0.0761,-0.0741,-0.0748,-0.0747,-0.0761,-0.0771,-0.0778,-0.0798,-0.0788,-0.0796,-0.0787,-0.082,-0.0788,-0.0794,-0.0789,-0.0788,-0.079,-0.0827,-0.0828,-0.0829,-0.083,0,-0.0806,-0.0798,-0.0807,-0.0813,-0.082,-0.0824,-0.0826,-0.0834,-0.0813,-0.0822,-0.0833,-0.0839,-0.0849,-0.0859,-0.0865,-0.0862,-0.0843,-0.084,-0.0846,-0.0854,-0.0859,-0.0857,-0.0755,-0.0838,-0.0837,-0.0836,-0.0836,-0.0836,-0.0866,-0.0881,-0.0878,-0.0889,-0.0888,-0.0891,-0.0903,-0.0895,-0.0905,-0.0912,-0.0899,-0.0915,-0.0912,-0.0917,-0.0917,-0.0928,-0.0914,-0.0924,-0.0927,-0.093,-0.0935,-0.0856,-0.0929,-0.0929,-0.0929,-0.0928,-0.0928,0,-0.0945,-0.0942,-0.0952,-0.0956,-0.0964,-0.0944,-0.0946,-0.0954,-0.0968,-0.0967,-0.0975,-0.0988,-0.0998,-0.0989,-0.0997,-0.1008,-0.0999,-0.1011,-0.101,-0.101,-0.0946,-0.094,-0.1018,-0.1018,-0.1018,-0.1018,-0.1018,-0.1018,-0.0987,-0.1011,-0.1003,-0.1027,-0.1023,-0.1038,-0.104,-0.1042,-0.1042,-0.1059,-0.1066,-0.106,-0.1056,-0.1064,-0.1072,-0.1069,-0.1073,-0.1088,-0.1082,-0.1023,-0.1014,-0.1006,-0.1,-0.1089,-0.1089,-0.1145,-0.1146,-0.1146]},{"header":{"parameterUnit":"m.s-1","parameterCategory":1,"la1":30.2991,"la2":30.254,"lo1":-89.0895,"lo2":-89.0444,"dy":0.0017,"dx":0.0017,"nx":28,"ny":28,"refTime":"2023-10-13T09:00:00:Z","depth":0,"parameterNumber":3,"parameterNumberName":"V-component_of_WINDS"},"data":[0,0,0,0,0,0,0,0,0,0,0,0,0,0,0,0,0,0,0,0,0,0,0,0,0,0,0,0,0,0,0,0,0,0,0,0,0,0,0,0,0,0,0,0,0,0,0,0,0,0,0,0,0,0,0,0,0,0,0.2564,0.2564,0,0.2582,0.2582,0.2582,0.2619,0.262,0.2621,0.2622,0.2637,0.2637,0.2637,0,0,0,0,0,0,0,0,0,0,0,0,0,0.256,0.256,0.2564,0.2564,0.2564,0.2582,0.2582,0.2582,0.2619,0.262,0.2621,0.2622,0.2637,0.2637,0.2637,0,0,0,0,0,0,0,0,0,0,0,0,0,0.2568,0.256,0.2564,0.2585,0.2587,0.2582,0.2582,0.2582,0.2619,0.262,0.2621,0.2622,0.2638,0.2637,0.2637,0.2611,0,0,0.2635,0.2635,0,0,0,0,0,0,0,0,0.2567,0.2568,0.2582,0.2584,0.2586,0.26,0.2586,0.2592,0.2619,0.2607,0.2622,0.2623,0.2624,0.2624,0.2625,0.2612,0.2613,0.2635,0.2635,0.2635,0.2635,0,0,0,0,0,0,0,0.2567,0.2567,0.2571,0.2582,0.2584,0.2593,0.2595,0.2587,0.2609,0.2608,0.2611,0.2612,0.2625,0.2626,0.2626,0.2613,0.2635,0.2635,0.2635,0.2635,0.2578,0.2577,0,0,0,0,0,0,0.2563,0.2567,0.257,0.2571,0.2579,0.2592,0.2595,0.2594,0.2609,0.2612,0.2611,0.2614,0.2626,0.2626,0.2627,0.2596,0.2635,0.2635,0.2634,0.2579,0.2578,0.2576,0,0,0,0,0,0,0.2563,0.2563,0.257,0.257,0.2571,0.2591,0.259,0.2594,0.2594,0.2611,0.2615,0.2608,0.2627,0.2627,0.2615,0.2597,0.2634,0.2634,0.2581,0.2579,0.2577,0.2536,0,0,0,0,0,0,0.2563,0.2563,0.2554,0.2569,0.2571,0.2558,0.2589,0.2593,0.2594,0.2597,0.2609,0.2612,0.2628,0.2615,0.2614,0.2597,0.2634,0.2582,0.258,0.2578,0.2538,0.2532,0.2527,0,0,0,0,0,0.2563,0.2542,0.2554,0.2554,0.2561,0.2557,0.2558,0.2576,0.2592,0.2583,0.2594,0.2612,0.26,0.2613,0.2613,0.2595,0.2583,0.258,0.2578,0.2541,0.2534,0.2527,0,0,0,0,0,0,0.2523,0.2544,0.2557,0.2541,0.2547,0.2563,0.2552,0.2568,0.2569,0.2572,0.2595,0.2597,0.2581,0.2587,0.2602,0.2571,0.2594,0.2591,0.2567,0.256,0.2554,0.2552,0.2633,0,0,0,0,0,0.2513,0.2509,0.2527,0.2511,0.2514,0.2532,0.2531,0.2545,0.2552,0.2554,0.2564,0.2569,0.2566,0.2564,0.2562,0.254,0.2542,0.2528,0.2522,0.2518,0.2514,0.2501,0.2494,0.2567,0.2567,0.2567,0,0,0.2491,0.2502,0.2498,0.2504,0.251,0.2504,0.2534,0.2527,0.2522,0.2553,0.2541,0.2549,0.2556,0.2538,0.253,0.2542,0.2495,0.2514,0.251,0.2509,0.2497,0.249,0.2484,0.2565,0.2565,0.2566,0,0,0.2448,0.2457,0.2443,0.2449,0.2458,0.2471,0.2467,0.2481,0.2487,0.2476,0.2498,0.2493,0.2488,0.2492,0.2493,0.245,0.2466,0.2449,0.2419,0.2406,0.24,0.2395,0.2377,0.2371,0.2446,0.2446,0.2446,0,0.2419,0.2412,0.2434,0.2425,0.2426,0.2454,0.244,0.2444,0.2452,0.2451,0.2465,0.2459,0.2466,0.2448,0.2437,0.2438,0.2434,0.2447,0.2399,0.2394,0.239,0.2373,0.2367,0.2444,0.2444,0.2444,0.2444,0,0.2375,0.237,0.2358,0.2365,0.2365,0.2353,0.2372,0.2369,0.2383,0.2394,0.2381,0.239,0.239,0.2388,0.2401,0.2371,0.2378,0.2396,0.2419,0.238,0.2365,0.2359,0.244,0.2441,0.2442,0.2443,0,0,0.2306,0.2326,0.2321,0.2323,0.2335,0.2331,0.2321,0.2321,0.2317,0.2322,0.2311,0.2307,0.2323,0.2324,0.2338,0.2327,0.2289,0.2345,0.2346,0.2332,0.2254,0.2239,0.2231,0.2301,0.23,0.2299,0.2252,0,0.2264,0.2247,0.2266,0.2244,0.2238,0.2265,0.2256,0.2261,0.2271,0.2267,0.2278,0.2272,0.2295,0.2296,0.2286,0.2296,0.2273,0.23,0.229,0.2289,0.2284,0.2223,0.2208,0.2163,0.2247,0.2246,0.2245,0,0.2212,0.2213,0.2191,0.2203,0.2202,0.2193,0.2194,0.219,0.2197,0.2205,0.2206,0.2223,0.2212,0.2237,0.2221,0.2238,0.2235,0.224,0.2238,0.2236,0.2263,0.2217,0.2149,0.2141,0.2236,0.2237,0.2238,0,0.216,0.2158,0.2143,0.2145,0.216,0.2152,0.2158,0.2166,0.2165,0.2166,0.2165,0.2164,0.2163,0.2162,0.2178,0.2196,0.2159,0.2186,0.2163,0.2162,0.2152,0.2152,0.208,0.2155,0.2155,0.2155,0.2155,0,0.2109,0.2093,0.212,0.2111,0.2094,0.2116,0.2099,0.2107,0.2114,0.2106,0.213,0.2122,0.2145,0.2139,0.2152,0.2134,0.2135,0.2139,0.2142,0.2135,0.2134,0.2132,0.2134,0.2153,0.2154,0.2154,0.2154,0,0.2047,0.2065,0.2051,0.2066,0.207,0.2056,0.2068,0.206,0.2072,0.2061,0.206,0.2078,0.2072,0.2088,0.2085,0.2094,0.2068,0.2078,0.2066,0.2068,0.2043,0.2043,0.1965,0.1954,0.2038,0.2037,0.2037,0,0.2012,0.2001,0.2015,0.2011,0.2016,0.201,0.2009,0.2031,0.2028,0.2034,0.2024,0.202,0.2018,0.2007,0.2019,0.2016,0.2024,0.1996,0.2023,0.2016,0.202,0.2019,0.2017,0.199,0.1989,0.1988,0.1987,0,0.1946,0.1956,0.1953,0.1953,0.1951,0.1952,0.1955,0.1951,0.1974,0.1969,0.1964,0.1962,0.1958,0.1953,0.1953,0.1958,0.1975,0.1979,0.1973,0.1964,0.1956,0.1957,0.2047,0.198,0.1981,0.1981,0.1982,0.1982,0.1895,0.1885,0.1893,0.1889,0.1894,0.1896,0.1888,0.1899,0.1895,0.1893,0.1907,0.1898,0.1903,0.1905,0.1908,0.19,0.1912,0.1904,0.1902,0.1899,0.1893,0.196,0.19,0.1901,0.1901,0.1901,0.1901,0,0.1828,0.1835,0.1831,0.1834,0.183,0.1849,0.1853,0.1848,0.184,0.1845,0.1842,0.1834,0.1829,0.1841,0.1838,0.1829,0.1837,0.1827,0.1826,0.1827,0.1884,0.1888,0.1821,0.1821,0.1821,0.1821,0.1821,0.1821,0.1793,0.1777,0.1787,0.1773,0.178,0.1771,0.1771,0.1772,0.1776,0.1766,0.1763,0.1771,0.1778,0.1775,0.177,0.1774,0.177,0.1757,0.1763,0.1815,0.1823,0.183,0.1834,0.1757,0.1757,0.1706,0.1705,0.1705]}]]